BRITE-U UNIBRITE

Satellite information

Favourite Embed

Satellite Type and Status

PAYLOADIN ORBIT

Key statistics

Satellite BRITE-U UNIBRITE at a glance.

Uptime

4515

Days in orbit

Revolutions

≈ 14.4

Per day

Orbit

SSO

Sun Synchronous Orbit

Inclination

98.4

Latest

Satellite identification and parameters

Extended collection of information and parameters for BRITE-U UNIBRITE.

Object identification

Identified? True

Debris? False

Object name: BRITE-U UNIBRITE

International designator: 2013-009G

Object number (NORAD): 39092

Object ID (CCSDS): 39092

Country: AUSTRIA (ASRA)

Current information (Y/N): Y

RCS size: MEDIUM

Orbital parameters

Period: 100.265 minutes

Inclination: 98.3928 deg

SMA: 7149.242 km

Apoapsis: 777.601 km

Periapsis: 764.613 km

RAAN: 10.746 deg

Eccentricy: 0.0009083

Argument of periapsis: 180.9678 deg

Mean anomaly: 179.1492 deg

Mean motion: 14.36192895 rev/day

Mean motion (dot): 0.00000155 rev/day2

B* drag term: 0.000067698 1/REarth

Two-line elements (TLE)

Creation date: July 6, 2025, 6:05 p.m.

Reference frame: TEME

Reference center: EARTH

Epoch: July 6, 2025, 11:34 a.m. UTC

TLE line 0: 0 BRITE-U UNIBRITE

TLE line 1: 1 39092U 13009G 25187.48243705 .00000155 00000-0 67698-4 0 9993

TLE line 2: 2 39092 98.3928 10.7460 0009083 180.9678 179.1492 14.36192895647368

Live tracking on map

Real-time ground track for satellite BRITE-U UNIBRITE.

In-orbit conjunctions

There are no conjunctions computed for BRITE-U UNIBRITE, at the moment. Check back to stay up to date, as we update our databases every day.

Go to all conjunctions

Associated space launch

SARAL or Satellite with ARgos and ALtiKa is a cooperative altimetry technology mission of Indian Space Research Organisation (ISRO) and CNES (Space Agency of France). SARAL is tasked to perform altimetric measurements designed to study ocean circulation and sea surface elevation.

BRITE-U UNIBRITE was lifted into orbit during the mission ‘PSLV-CA | SARAL’, on board a PSLV space rocket.

The launch took place on Feb. 25, 2013, 12:31 p.m. from Satish Dhawan Space Centre First Launch Pad.

For more information about the launch, click the button.

Launch to space PSLV-CA | SARAL
PSLV-CA | SARAL

Agency: N/A

Status: Launch Successful

Launch date: Feb. 25, 2013, 12:31 p.m. UTC

Rocket: PSLV

Launch pad: Satish Dhawan Space Centre First Launch Pad

Location: Satish Dhawan Space Centre, India

...

Latest news about this satellite

There are no fresh news available about this satellite. Check back as we update our databases every day.


Newsletter sign-up

Weekly statistics, charts and insights to help you stay on top of the space industry.